Tracking 19192 objects as of 22-Jun-2018
HD Live streaming from Space Station
objects crossing your sky now

FENGYUN 1C DEB

Track FENGYUN 1C DEB now!
10-day predictions


NORAD ID: 31186
Int'l Code: 1999-025BJQ
Perigee: 848.7 km
Apogee: 888.3 km
Inclination: 99.3 °
Period: 102.2 minutes
Semi major axis: 7239 km
RCS: 0.0179 m2 (small)
Launch date: May 10, 1999
Source: People's Republic of China (PRC)
Launch site: Taiyaun Space Center, China (TSC)

Note: This is SATELLITE DEBRIS
aabbcc
Your satellite tracking list
Your tracking list is empty




NASA's NSSDC Master Catalog

Two Line Element Set (TLE):
1 31186U 99025BJQ 18172.22936608 +.00000193 +00000-0 +13692-3 0  9996
2 31186 099.2999 323.5512 0027361 113.7140 009.6916 14.09423373576000
Source of the keplerian elements: AFSPC